Terminal Aerodrome Forecast
Issued by NWS Dallas/Fort Worth, TX

Home | Current Version | Previous Version | Text Only | Print | Product List | Glossary On
Versions: 1 2 3 4 5 6 7 8 9 10 11 12 13 14 15 16 17 18 19 20 21 22 23 24 25 26 27 28
000
FTUS44 KFWD 170500
TAFACT
TAF
KACT 170529Z 1706/1806 18007KT P6SM BKN120
      TEMPO 1712/1716 6SM BR BKN020
     FM171600 15005KT P6SM VCSH SCT040 BKN250
      TEMPO 1721/1724 4SM -TSRA BR BKN040CB
     FM180300 15006KT 5SM -TSRA BR SCT025 OVC050CB=

USA.gov is the U.S. government's official web portal to all federal, state and local government web resources and services.